W1HS Weather Reports


time (UTC)temp
F
wind
direction
speed
knots
gust
knots
rain 1hr
in
rain 24hr
in
rain mn
in
humidity
%
barometer
mb
20260902060719 61 0.0 0.0 0.00 0.30 0.00 96 1000.0
20260902055719 61 0.0 0.0 0.00 0.30 0.00 96 999.9
20260902054719 61 0.0 0.0 0.00 0.30 0.00 96 999.9
20260902053721 61 0.0 0.0 0.00 0.30 0.00 96 999.8
20260902052719 61 0.0 0.0 0.00 0.30 0.00 96 999.6
20260902051719 61 0.0 0.0 0.00 0.30 0.00 96 999.4
20260902050719 61 0.0 0.0 0.00 0.30 0.00 96 999.4
20260902045719 61 0.0 0.0 0.00 0.30 0.00 96 999.3
20260902044719 61 0.0 0.0 0.00 0.30 0.00 96 999.2
20260902043719 61 0.0 0.0 0.00 0.30 0.00 96 999.2
20260902042719 61 0.0 0.0 0.00 0.30 0.00 96 999.0
20260902041719 61 0.0 0.0 0.00 0.30 0.00 96 998.8
20260902040718 61 0.0 0.0 0.00 0.30 0.00 96 998.7
20260902035719 61 0.0 0.0 0.00 0.30 0.30 96 998.6
20260902034719 62 0.0 0.0 0.00 0.30 0.30 96 998.6
20260902033723 62 0.0 1.7 0.00 0.30 0.30 96 998.7
20260902032719 62 0.0 0.0 0.00 0.30 0.30 96 998.8
20260902031719 62 0.0 0.0 0.00 0.30 0.30 96 999.0
20260902030719 62 0.0 0.0 0.00 0.30 0.30 96 998.9
20260902025719 62 225 1.7 2.6 0.00 0.30 0.30 96 998.9
20260902024719 62 225 0.9 2.6 0.00 0.30 0.30 96 998.8
20260902023719 62 225 0.9 2.6 0.00 0.30 0.30 96 998.5
20260902022719 62 225 1.7 2.6 0.00 0.30 0.30 96 998.2
20260902021719 62 0.0 0.0 0.00 0.30 0.30 96 998.3
20260902020719 62 0.0 1.7 0.00 0.30 0.30 96 998.5
20260902015719 62 0.0 0.0 0.00 0.30 0.30 95 998.4
20260902014719 62 0.0 0.0 0.00 0.30 0.30 95 998.3
20260902013719 62 203 0.9 5.2 0.00 0.30 0.30 95 998.4
20260902012719 62 0.0 0.0 0.00 0.30 0.30 95 998.4
20260902011719 62 0.0 0.0 0.00 0.30 0.30 95 998.4
20260902010718 62 0.0 0.0 0.00 0.30 0.30 95 998.3
20260902005719 62 0.0 0.0 0.00 0.30 0.30 95 998.3
20260902004719 62 0.0 0.0 0.00 0.30 0.30 95 998.2
20260902003719 62 0.0 0.0 0.00 0.30 0.30 95 998.1
20260902002719 62 0.0 0.0 0.00 0.30 0.30 95 998.0
20260902001719 63 0.0 0.0 0.00 0.30 0.30 95 997.7
20260902000719 63 0.0 0.0 0.00 0.30 0.30 95 997.6
20260901235719 63 0.0 0.0 0.00 0.30 0.30 95 997.5
20260901234718 63 0.0 0.0 0.00 0.30 0.30 95 997.5
20260901233719 63 0.0 0.0 0.00 0.30 0.30 95 997.4
20260901232718 63 0.0 0.0 0.00 0.30 0.30 95 997.4
20260901231830 63 0.0 0.0 0.00 0.30 0.30 95 997.6
20260901231419 63 0.0 0.0 0.00 0.30 0.30 95 997.6
20260901230419 63 0.0 0.0 0.00 0.30 0.30 95 997.4
20260901225419 63 0.0 0.0 0.00 0.30 0.30 95 997.4
20260901224418 63 0.0 0.0 0.00 0.30 0.30 95 997.4
20260901223418 63 0.0 0.0 0.00 0.30 0.30 94 997.6
20260901222418 63 0.0 0.0 0.00 0.30 0.30 95 997.7
20260901221418 64 0.0 0.0 0.00 0.30 0.30 94 997.6
20260901220418 64 0.0 0.0 0.01 0.30 0.30 94 997.5
20260901215419 64 0.0 0.0 0.01 0.30 0.30 94 997.4
20260901214525 64 0.0 0.0 0.01 0.30 0.30 94 997.3
20260901214118 64 0.0 0.0 0.01 0.30 0.30 94 997.3
20260901213118 64 0.0 0.0 0.01 0.30 0.30 95 997.3
20260901212118 64 0.0 0.9 0.01 0.30 0.30 95 997.1
20260901211118 64 0.0 0.0 0.00 0.29 0.29 95 997.1
20260901210118 64 0.0 0.0 0.00 0.29 0.29 95 997.1
20260901205118 64 0.0 0.0 0.00 0.29 0.29 95 997.0
20260901204118 64 0.0 0.0 0.00 0.29 0.29 95 996.9
20260901203118 64 0.0 0.0 0.00 0.29 0.29 95 996.8
20260901202118 64 0.0 0.0 0.00 0.29 0.29 95 996.9
20260901201118 64 0.0 0.0 0.00 0.29 0.29 95 996.8
20260901200118 64 0.0 0.0 0.00 0.29 0.29 95 996.7
20260901195118 63 0.0 0.9 0.00 0.29 0.29 95 996.8
20260901194118 63 0.0 0.9 0.00 0.29 0.29 94 996.7
20260901193119 64 0.0 0.9 0.01 0.29 0.29 95 996.7
20260901192118 64 0.0 0.0 0.01 0.29 0.29 95 996.8
20260901191118 64 0.0 1.7 0.01 0.29 0.29 95 996.8
20260901190118 64 0.0 0.0 0.01 0.29 0.29 95 996.9
20260901185118 63 0.0 0.0 0.01 0.29 0.29 95 997.0
20260901184118 63 0.0 0.0 0.02 0.29 0.29 96 997.0
20260901183118 63 0.0 0.0 0.01 0.28 0.28 95 997.0
20260901182118 62 0.0 1.7 0.03 0.28 0.28 95 996.9
20260901181118 62 0.0 0.0 0.04 0.28 0.28 95 996.8
20260901180118 62 0.0 0.0 0.04 0.28 0.28 95 996.8
20260901175118 62 0.0 0.9 0.04 0.28 0.28 95 996.8
20260901174159 62 0.0 0.0 0.03 0.27 0.27 95 996.8
20260901173918 62 0.0 0.0 0.03 0.27 0.27 95 996.7
20260901173819 62 0.0 0.0 0.03 0.27 0.27 95 996.5
20260901173817 61 0.0 1.7 0.00 0.24 0.24 95 996.7
20260901173814 61 0.0 1.7 0.01 0.24 0.24 95 996.5
20260901173812 61 90 1.7 7.0 0.01 0.24 0.24 95 996.3
20260901173810 61 113 2.6 5.2 0.01 0.24 0.24 95 996.0
20260901173808 62 0.0 0.0 0.00 0.23 0.23 95 996.6